SCP
0 0 0 0 0 0 0 0 0 0 0 0 0 0 0 0 0 0 0 0 0 0 0 0 0 0 0 0 0 0 0 0 0 0 0 0 0 0 0 0 0 0 0
0 0 0 0 0 0 0 0 0 0 0 0 0 0 0 0 0 0 0 0 0 0 0 0 0 0 0 0 0 0 0 0 0 0 0 0 0 0 0 0 0 0 0
0 0 0 0 0 0 0 0 0 0 0 0 0 0 0 0 0 0 0 0 0 0 0 0 0 0 0 0 0 0 0 0 0 0 0 0 0 0 0 0 0 0 0
0 0 0 0 0 0 0 0 0 0 0 0 0 0 0 0 0 0 0 0 0 0 0 0 0 0 0 0 0 0 0 0 0 0 0 0 0 0 0 0 0 0 0
0 0 0 0 0 0 0 0 0 0 0 0 0 0 0 0 0 0 0 0 0 0 0 0 0 0 0 0 0 0 0 0 0 0 0 0 0 0 0 0 0 0 0
0 0 0 0 0 0 0 0 0 0 0 0 0 0 0 0 0 0 0 0 0 0 0 0 0 0 0 0 0 0 0 0 0 0 0 0 0 0 0 0 0 0 0
0 0 0 0 0 0 0 0 0 0 0 0 0 0 0 0 0 0 0 0 0 0 0 0 0 0 0 0 0 0 0 0 0 0 0 0 0 0 0 0 0 0 0
0 0 0 0 0 0 0 0 0 0 0 0 0 0 0 0 0 0 0 0 0 0 0 0 0 0 0 0 0 0 0 0 0 0 0 0 0 0 0 0 0 0 0
0 0 0 0 0 0 0 0 0 0 0 0 0 0 0 0 0 0 0 0 0 0 0 0 0 0 0 0 0 0 0 0 0 0 0 0 0 0 0 0 0 0 0
0 0 0 0 0 0 0 0 0 0 0 0 0 0 0 0 0 0 0 0 0 0 0 0 0 0 0 0 0 0 0 0 0 0 0 0 0 0 0 0 0 0 0
0 0 0 0 0 0 0 0 0 0 0 0 0 0 0 0 0 0 0 0 0 0 0 0 0 0 0 0 0 0 0 0 0 0 0 0 0 0 0 0 0 0 0
0 0 0 0 0 0 0 0 0 0 0 0 0 0 0 0 0 0 0 0 0 0 0 0 0 0 0 0 0 0 0 0 0 0 0 0 0 0 0 0 0 0 0
0 0 0 0 0 0 0 0 0 0 0 0 0 0 0 0 0 0 0 0 0 0 0 0 0 0 0 0 0 0 0 0 0 0 -0 -0 0 0 0 0 -0 -0 -0
0 0 0 0 0 0 0 0 0 0 0 0 0 0 0 0 0 0 0 0 0 0 0 0 -0 -0 0 0 0 -0 0 0 0 0 -0 -0 -0 -0 0 0 -0 -0 -0
0 0 0 0 0 0 0 0 0 0 0 0 0 0 0 0 0 0 0 0 0 0 0 0 -0 -0 -0 0 0 0 0 0 0 0 -0 -0 -0 -0 -0 0 0 0 0
0 0 0 0 0 0 0 0 0 0 0 0 0 0 0 0 0 -0 0 0 -0 0 0 0 -0 0 0 -0 0 -0 -0 0 0 0 -0 0 -0 0 0 0 0 0 0
0 0 0 0 0 0 0 0 0 0 0 0 0 0 0 0 0 0 0 0 -0 -0 0 0 0 0 0 0 0 0 0 0 0 0 -0 0 0 0 0 0 0 0 0
0 0 0 0 0 0 0 0 0 0 0 0 0 0 0 0 0 0 0 0 0 -0 0 0 0 0 0 0 0 0 0 0 0 0 0 0 0 0 0 -0 0 0 0
0 0 0 0 0 0 0 0 0 0 0 0 0 0 0 0 0 0 0 0 -0 -0 0 0 0 0 0 0 -0 0 0 0 0 0 0 0 0 0 0 0 0 0 0
0 0 0 0 0 0 0 0 0 0 0 0 0 0 0 0 0 0 0 0 -0 -0 0 0 0 0 0 0 -0 0 0 0 0 0 0 0 0 -0 0 0 0 0 0
0 0 0 0 0 0 0 0 0 0 0 0 0 0 0 0 0 0 0 0 0 -0 -0 0 0 0 0 0 -0 0 0 0 0 0 0 0 0 0 0 0 0 0 0
0 0 0 0 0 0 0 0 0 0 0 0 0 0 0 0 0 0 0 0 0 -0 0 -0 0 0 0 0 0 0 0 0 0 0 0 0 0 0 0 0 0 0 0
0 0 0 0 0 0 0 0 0 0 0 0 0 0 0 0 0 0 0 0 0 0 0 0 0 0 0 0 0 0 -0 0 0 0 0 0 0 0 0 0 0 0 0
0 0 0 0 0 0 0 0 0 0 0 0 0 0 0 0 0 0 0 0 0 0 0 0 0 0 0 0 0 0 0 0 0 0 0 -0 0 0 0 0 0 0 0
0 0 0 0 0 0 0 0 0 0 0 0 0 0 0 0 0 0 0 0 0 0 0 0 0 0 0 0 0 0 0 0 0 0 0 0 0 0 0 0 0 0 -0
0 0 0 0 0 0 0 0 0 0 0 0 0 0 0 0 0 0 0 0 0 0 0 0 0 0 0 0 0 0 0 0 0 0 0 0 0 0 0 0 0 0 0
Wind_Speed_500mb
15 26 25 25 25 27 33 36 39 51 38 46 63 56 51 40 29 37 32 37 39 39 44 35 30 26 31 34 40 32 38 35 34 39 34 29 22 24 19 21 36 36 37
28 27 30 27 21 16 23 33 40 46 44 39 52 55 48 38 34 31 40 44 45 44 36 31 35 33 34 32 36 30 31 35 33 33 33 24 27 4 17 22 27 31 34
31 31 37 32 20 26 21 30 32 33 34 41 42 42 43 43 46 34 36 36 40 44 40 37 37 38 36 38 35 32 34 34 28 27 23 12 9 42 22 20 16 31 40
19 24 24 20 15 17 19 19 16 16 14 21 33 34 50 45 47 40 43 45 48 48 44 50 37 35 35 38 33 34 29 31 30 26 26 25 31 22 28 35 50 34 35
13 12 6 4 6 5 3 1 4 8 12 15 21 30 39 56 53 48 46 43 45 50 47 32 30 30 31 31 35 30 27 28 27 28 28 30 29 33 38 53 59 55 45
18 15 8 11 13 5 3 4 2 5 4 12 19 23 31 36 47 52 57 55 43 43 37 33 34 29 26 29 27 23 24 21 24 25 25 30 35 41 41 49 61 64 61
29 18 18 15 9 6 3 2 7 8 13 17 16 21 26 32 38 46 57 58 58 45 41 36 31 27 19 17 19 24 23 20 24 25 26 32 35 38 43 48 57 58 60
15 10 7 8 10 3 12 10 8 9 19 20 18 14 24 34 47 48 38 42 50 49 39 38 40 36 23 25 22 27 26 21 25 28 30 34 33 36 39 43 49 47 38
11 10 14 8 5 2 3 2 3 10 8 12 14 24 31 31 40 45 41 46 49 44 40 44 38 35 26 20 24 25 25 26 28 30 27 28 30 31 34 36 39 33 25
24 17 12 13 11 5 7 11 14 15 15 18 25 27 32 32 35 40 46 38 41 51 50 50 41 36 35 28 27 18 20 23 25 18 18 22 28 23 22 28 21 20 22
18 13 7 4 12 22 21 20 14 17 22 27 32 28 37 33 42 42 36 46 50 45 42 40 43 35 37 31 31 21 20 20 15 14 17 22 24 20 19 19 14 15 22
12 12 7 10 19 18 17 15 20 23 23 28 24 39 37 33 39 43 41 51 50 46 45 44 40 35 33 30 27 20 22 19 15 12 12 19 21 16 17 15 12 14 18
21 11 3 11 9 8 7 10 11 14 15 20 35 32 30 34 39 43 48 44 38 26 30 40 35 34 30 26 24 18 20 14 14 10 7 15 18 15 16 13 14 10 10
15 2 4 10 8 1 3 6 10 18 29 30 37 38 33 35 34 44 49 43 44 25 30 32 36 34 34 26 24 22 23 17 20 9 4 10 17 16 16 10 8 8 13
10 12 11 11 12 11 14 18 27 32 34 42 40 28 29 33 43 51 48 45 43 26 21 27 32 43 40 27 24 25 22 21 19 13 3 6 13 15 13 11 15 19 30
20 14 13 14 15 20 22 23 27 36 42 41 27 18 20 31 41 50 39 37 27 17 10 20 18 34 37 32 29 26 21 13 15 26 7 1 5 10 14 15 13 9 23
15 13 15 18 18 17 20 29 38 44 45 38 33 30 31 34 37 40 37 29 32 28 19 9 8 19 37 27 31 27 23 9 14 9 8 4 5 5 7 8 14 10 8
11 11 16 18 18 25 33 38 40 36 34 38 41 40 31 30 37 39 35 32 27 30 20 10 11 22 25 26 33 32 25 16 16 13 11 8 6 5 5 7 15 19 13
12 14 16 19 20 26 34 40 37 36 47 40 35 40 38 28 31 37 35 34 29 25 16 23 17 18 25 24 31 31 30 25 21 13 12 16 8 1 3 3 8 11 17
11 14 14 14 23 29 38 43 43 44 38 41 36 34 32 30 28 31 34 35 26 15 16 13 11 18 27 29 34 35 27 24 27 19 15 11 6 6 6 3 8 11 13
12 11 9 19 29 37 40 43 39 34 33 36 33 31 29 33 33 29 31 30 22 12 16 15 11 10 27 34 38 32 26 25 29 21 16 18 8 5 10 6 7 8 7
13 12 21 29 33 40 35 41 42 35 32 38 32 31 29 32 35 31 24 19 19 14 17 8 13 11 20 28 38 32 26 29 24 23 24 21 16 5 7 13 10 10 10
13 15 23 29 37 34 32 35 41 40 37 39 36 29 34 39 28 27 27 20 15 18 14 14 3 19 22 33 32 32 31 31 29 23 22 19 23 17 10 10 12 11 13
15 14 21 27 31 38 30 33 37 37 39 38 36 27 28 37 28 18 20 16 10 16 18 13 7 5 27 31 34 35 34 33 34 24 13 15 23 24 20 19 18 15 16
14 17 21 26 30 28 35 28 36 38 40 34 37 28 24 36 26 26 20 15 11 22 13 20 8 8 15 29 26 36 35 31 29 29 20 21 29 28 23 21 21 25 25
16 19 30 30 28 30 34 32 32 29 33 33 38 27 22 29 23 26 21 9 6 16 7 23 10 15 10 32 29 36 33 28 25 29 32 28 24 24 14 9 3 13 22
Wind_Direction_500mb
205 234 232 233 240 246 245 244 244 249 267 270 264 268 280 269 275 301 298 292 286 294 300 286 271 273 278 287 295 288 293 294 314 313 314 312 309 294 283 267 270 273 258
237 247 246 239 250 274 279 260 261 269 281 282 273 275 274 269 270 271 290 292 286 292 298 290 284 276 279 282 295 284 295 301 312 312 318 324 331 293 279 264 269 276 270
242 246 253 248 270 269 277 282 275 280 275 285 286 276 267 285 276 275 287 297 290 291 291 292 297 277 273 280 284 284 292 300 301 301 292 312 283 316 311 319 303 292 267
216 228 223 244 268 265 260 266 271 275 284 297 308 295 264 290 289 276 284 288 283 290 291 293 283 280 273 280 272 275 286 292 295 297 289 280 284 293 311 308 319 312 293
128 136 174 233 176 188 116 338 279 278 299 304 312 310 279 286 288 275 276 280 284 284 288 279 271 282 277 280 267 276 282 286 290 293 288 284 285 285 287 303 315 316 311
136 139 157 143 129 157 310 314 349 2 321 312 322 320 312 303 304 286 272 270 272 280 275 280 280 282 281 275 272 279 288 275 286 293 292 294 289 289 290 294 307 311 316
155 148 159 175 159 135 167 15 9 14 360 342 316 312 318 329 322 314 283 271 276 269 270 277 279 275 281 279 287 296 289 275 276 294 300 301 296 290 288 285 293 304 311
157 173 138 164 141 10 347 336 16 13 341 336 336 328 327 320 321 316 306 279 267 266 264 268 272 273 277 272 283 284 284 278 284 292 304 304 301 292 290 287 291 299 301
169 161 149 148 239 321 167 215 276 296 296 308 325 325 323 319 328 334 306 292 271 269 260 272 263 264 263 270 269 268 275 268 287 296 305 305 307 297 289 288 290 277 275
150 144 140 154 159 228 230 236 267 300 318 326 329 340 338 325 328 329 325 313 281 272 271 267 260 256 260 260 258 265 272 274 287 296 302 325 318 306 301 308 279 274 264
161 164 169 270 294 288 279 274 286 316 319 320 324 323 329 320 329 329 318 314 304 275 264 252 251 256 253 246 256 245 268 276 263 286 312 330 326 326 324 324 291 278 277
197 209 241 277 299 270 263 284 308 308 304 311 319 323 324 319 322 326 324 324 308 277 255 262 256 246 247 241 248 244 254 264 258 293 304 328 328 327 324 333 333 306 290
192 183 204 298 278 247 295 306 280 297 311 315 317 328 317 323 324 329 330 328 320 294 255 258 244 245 242 234 223 233 249 259 253 283 328 351 350 339 316 317 335 343 331
149 117 43 80 66 53 322 321 322 324 329 328 333 326 322 327 332 336 334 327 325 291 257 248 242 246 228 243 211 227 235 233 247 255 268 351 8 339 348 347 26 61 7
118 112 93 55 29 5 346 335 329 331 336 336 344 341 333 338 333 333 330 330 328 280 245 245 254 237 220 242 216 202 221 240 216 217 215 337 14 2 11 48 106 84 42
112 90 47 23 357 346 341 334 335 337 339 336 333 338 350 344 340 335 336 333 340 15 284 270 255 219 212 227 196 214 209 231 210 229 232 340 45 38 53 85 76 70 51
96 49 13 3 359 354 347 346 346 344 342 342 334 330 345 346 339 341 342 330 337 329 325 286 252 224 216 216 202 202 211 241 216 216 186 171 82 102 58 34 23 12 62
66 38 6 360 356 347 342 341 340 340 340 338 337 345 337 343 339 343 343 341 327 330 282 267 232 221 210 203 200 197 210 220 210 208 192 179 83 89 45 107 30 65 81
43 15 12 351 343 342 351 345 337 345 344 349 345 350 349 345 339 346 348 343 328 316 279 242 234 234 209 200 192 199 207 210 208 208 197 178 196 124 87 125 101 87 80
43 358 355 347 344 354 354 352 350 349 356 351 347 339 352 352 347 341 347 349 334 329 309 269 257 223 217 197 192 205 210 208 197 187 196 187 189 259 234 216 149 114 96
7 14 1 355 360 1 359 355 358 4 9 3 1 7 359 344 337 334 343 352 0 340 323 304 233 237 214 193 186 191 198 193 186 192 189 194 205 254 207 210 179 165 118
21 19 8 10 4 357 352 351 2 360 352 349 348 356 357 349 343 327 327 346 347 1 358 326 263 246 194 185 181 189 196 195 197 185 189 214 215 228 188 192 193 202 223
344 353 353 355 358 358 352 345 354 354 357 349 344 339 341 344 342 347 338 350 360 5 358 356 7 239 192 196 189 195 202 194 198 194 206 212 212 196 221 204 198 202 214
325 328 339 353 351 353 348 352 349 347 343 348 348 343 352 358 355 345 335 355 331 349 357 359 353 183 190 196 204 198 198 193 202 214 211 224 194 194 222 224 227 212 201
305 302 330 338 338 348 357 356 352 347 344 347 349 341 343 358 353 3 345 3 358 342 352 9 12 20 138 185 184 188 188 189 196 209 193 192 191 206 230 248 243 221 210
297 298 323 317 330 349 349 345 344 338 341 355 351 348 338 354 347 350 15 359 17 309 63 33 35 21 78 191 175 176 183 185 191 205 211 208 218 229 237 233 211 222 209
Wind_Speed_850mb
15 26 25 25 25 27 33 36 39 51 38 46 63 56 51 40 29 37 32 37 39 39 44 35 30 26 31 34 40 32 38 35 34 39 34 29 22 24 19 21 36 36 37
28 27 30 27 21 16 23 33 40 46 44 39 52 55 48 38 34 31 40 44 45 44 36 31 35 33 34 32 36 30 31 35 33 33 33 24 27 4 17 22 27 31 34
31 31 37 32 20 26 21 30 32 33 34 41 42 42 43 43 46 34 36 36 40 44 40 37 37 38 36 38 35 32 34 34 28 27 23 12 9 42 22 20 16 31 40
19 24 24 20 15 17 19 19 16 16 14 21 33 34 50 45 47 40 43 45 48 48 44 50 37 35 35 38 33 34 29 31 30 26 26 25 31 22 28 35 50 34 35
13 12 6 4 6 5 3 1 4 8 12 15 21 30 39 56 53 48 46 43 45 50 47 32 30 30 31 31 35 30 27 28 27 28 28 30 29 33 38 53 59 55 45
18 15 8 11 13 5 3 4 2 5 4 12 19 23 31 36 47 52 57 55 43 43 37 33 34 29 26 29 27 23 24 21 24 25 25 30 35 41 41 49 61 64 61
29 18 18 15 9 6 3 2 7 8 13 17 16 21 26 32 38 46 57 58 58 45 41 36 31 27 19 17 19 24 23 20 24 25 26 32 35 38 43 48 57 58 60
15 10 7 8 10 3 12 10 8 9 19 20 18 14 24 34 47 48 38 42 50 49 39 38 40 36 23 25 22 27 26 21 25 28 30 34 33 36 39 43 49 47 38
11 10 14 8 5 2 3 2 3 10 8 12 14 24 31 31 40 45 41 46 49 44 40 44 38 35 26 20 24 25 25 26 28 30 27 28 30 31 34 36 39 33 25
24 17 12 13 11 5 7 11 14 15 15 18 25 27 32 32 35 40 46 38 41 51 50 50 41 36 35 28 27 18 20 23 25 18 18 22 28 23 22 28 21 20 22
18 13 7 4 12 22 21 20 14 17 22 27 32 28 37 33 42 42 36 46 50 45 42 40 43 35 37 31 31 21 20 20 15 14 17 22 24 20 19 19 14 15 22
12 12 7 10 19 18 17 15 20 23 23 28 24 39 37 33 39 43 41 51 50 46 45 44 40 35 33 30 27 20 22 19 15 12 12 19 21 16 17 15 12 14 18
21 11 3 11 9 8 7 10 11 14 15 20 35 32 30 34 39 43 48 44 38 26 30 40 35 34 30 26 24 18 20 14 14 10 7 15 18 15 16 13 14 10 10
15 2 4 10 8 1 3 6 10 18 29 30 37 38 33 35 34 44 49 43 44 25 30 32 36 34 34 26 24 22 23 17 20 9 4 10 17 16 16 10 8 8 13
10 12 11 11 12 11 14 18 27 32 34 42 40 28 29 33 43 51 48 45 43 26 21 27 32 43 40 27 24 25 22 21 19 13 3 6 13 15 13 11 15 19 30
20 14 13 14 15 20 22 23 27 36 42 41 27 18 20 31 41 50 39 37 27 17 10 20 18 34 37 32 29 26 21 13 15 26 7 1 5 10 14 15 13 9 23
15 13 15 18 18 17 20 29 38 44 45 38 33 30 31 34 37 40 37 29 32 28 19 9 8 19 37 27 31 27 23 9 14 9 8 4 5 5 7 8 14 10 8
11 11 16 18 18 25 33 38 40 36 34 38 41 40 31 30 37 39 35 32 27 30 20 10 11 22 25 26 33 32 25 16 16 13 11 8 6 5 5 7 15 19 13
12 14 16 19 20 26 34 40 37 36 47 40 35 40 38 28 31 37 35 34 29 25 16 23 17 18 25 24 31 31 30 25 21 13 12 16 8 1 3 3 8 11 17
11 14 14 14 23 29 38 43 43 44 38 41 36 34 32 30 28 31 34 35 26 15 16 13 11 18 27 29 34 35 27 24 27 19 15 11 6 6 6 3 8 11 13
12 11 9 19 29 37 40 43 39 34 33 36 33 31 29 33 33 29 31 30 22 12 16 15 11 10 27 34 38 32 26 25 29 21 16 18 8 5 10 6 7 8 7
13 12 21 29 33 40 35 41 42 35 32 38 32 31 29 32 35 31 24 19 19 14 17 8 13 11 20 28 38 32 26 29 24 23 24 21 16 5 7 13 10 10 10
13 15 23 29 37 34 32 35 41 40 37 39 36 29 34 39 28 27 27 20 15 18 14 14 3 19 22 33 32 32 31 31 29 23 22 19 23 17 10 10 12 11 13
15 14 21 27 31 38 30 33 37 37 39 38 36 27 28 37 28 18 20 16 10 16 18 13 7 5 27 31 34 35 34 33 34 24 13 15 23 24 20 19 18 15 16
14 17 21 26 30 28 35 28 36 38 40 34 37 28 24 36 26 26 20 15 11 22 13 20 8 8 15 29 26 36 35 31 29 29 20 21 29 28 23 21 21 25 25
16 19 30 30 28 30 34 32 32 29 33 33 38 27 22 29 23 26 21 9 6 16 7 23 10 15 10 32 29 36 33 28 25 29 32 28 24 24 14 9 3 13 22
Wind_Direction_850mb
205 234 232 233 240 246 245 244 244 249 267 270 264 268 280 269 275 301 298 292 286 294 300 286 271 273 278 287 295 288 293 294 314 313 314 312 309 294 283 267 270 273 258
237 247 246 239 250 274 279 260 261 269 281 282 273 275 274 269 270 271 290 292 286 292 298 290 284 276 279 282 295 284 295 301 312 312 318 324 331 293 279 264 269 276 270
242 246 253 248 270 269 277 282 275 280 275 285 286 276 267 285 276 275 287 297 290 291 291 292 297 277 273 280 284 284 292 300 301 301 292 312 283 316 311 319 303 292 267
216 228 223 244 268 265 260 266 271 275 284 297 308 295 264 290 289 276 284 288 283 290 291 293 283 280 273 280 272 275 286 292 295 297 289 280 284 293 311 308 319 312 293
128 136 174 233 176 188 116 338 279 278 299 304 312 310 279 286 288 275 276 280 284 284 288 279 271 282 277 280 267 276 282 286 290 293 288 284 285 285 287 303 315 316 311
136 139 157 143 129 157 310 314 349 2 321 312 322 320 312 303 304 286 272 270 272 280 275 280 280 282 281 275 272 279 288 275 286 293 292 294 289 289 290 294 307 311 316
155 148 159 175 159 135 167 15 9 14 360 342 316 312 318 329 322 314 283 271 276 269 270 277 279 275 281 279 287 296 289 275 276 294 300 301 296 290 288 285 293 304 311
157 173 138 164 141 10 347 336 16 13 341 336 336 328 327 320 321 316 306 279 267 266 264 268 272 273 277 272 283 284 284 278 284 292 304 304 301 292 290 287 291 299 301
169 161 149 148 239 321 167 215 276 296 296 308 325 325 323 319 328 334 306 292 271 269 260 272 263 264 263 270 269 268 275 268 287 296 305 305 307 297 289 288 290 277 275
150 144 140 154 159 228 230 236 267 300 318 326 329 340 338 325 328 329 325 313 281 272 271 267 260 256 260 260 258 265 272 274 287 296 302 325 318 306 301 308 279 274 264
161 164 169 270 294 288 279 274 286 316 319 320 324 323 329 320 329 329 318 314 304 275 264 252 251 256 253 246 256 245 268 276 263 286 312 330 326 326 324 324 291 278 277
197 209 241 277 299 270 263 284 308 308 304 311 319 323 324 319 322 326 324 324 308 277 255 262 256 246 247 241 248 244 254 264 258 293 304 328 328 327 324 333 333 306 290
192 183 204 298 278 247 295 306 280 297 311 315 317 328 317 323 324 329 330 328 320 294 255 258 244 245 242 234 223 233 249 259 253 283 328 351 350 339 316 317 335 343 331
149 117 43 80 66 53 322 321 322 324 329 328 333 326 322 327 332 336 334 327 325 291 257 248 242 246 228 243 211 227 235 233 247 255 268 351 8 339 348 347 26 61 7
118 112 93 55 29 5 346 335 329 331 336 336 344 341 333 338 333 333 330 330 328 280 245 245 254 237 220 242 216 202 221 240 216 217 215 337 14 2 11 48 106 84 42
112 90 47 23 357 346 341 334 335 337 339 336 333 338 350 344 340 335 336 333 340 15 284 270 255 219 212 227 196 214 209 231 210 229 232 340 45 38 53 85 76 70 51
96 49 13 3 359 354 347 346 346 344 342 342 334 330 345 346 339 341 342 330 337 329 325 286 252 224 216 216 202 202 211 241 216 216 186 171 82 102 58 34 23 12 62
66 38 6 360 356 347 342 341 340 340 340 338 337 345 337 343 339 343 343 341 327 330 282 267 232 221 210 203 200 197 210 220 210 208 192 179 83 89 45 107 30 65 81
43 15 12 351 343 342 351 345 337 345 344 349 345 350 349 345 339 346 348 343 328 316 279 242 234 234 209 200 192 199 207 210 208 208 197 178 196 124 87 125 101 87 80
43 358 355 347 344 354 354 352 350 349 356 351 347 339 352 352 347 341 347 349 334 329 309 269 257 223 217 197 192 205 210 208 197 187 196 187 189 259 234 216 149 114 96
7 14 1 355 360 1 359 355 358 4 9 3 1 7 359 344 337 334 343 352 0 340 323 304 233 237 214 193 186 191 198 193 186 192 189 194 205 254 207 210 179 165 118
21 19 8 10 4 357 352 351 2 360 352 349 348 356 357 349 343 327 327 346 347 1 358 326 263 246 194 185 181 189 196 195 197 185 189 214 215 228 188 192 193 202 223
344 353 353 355 358 358 352 345 354 354 357 349 344 339 341 344 342 347 338 350 360 5 358 356 7 239 192 196 189 195 202 194 198 194 206 212 212 196 221 204 198 202 214
325 328 339 353 351 353 348 352 349 347 343 348 348 343 352 358 355 345 335 355 331 349 357 359 353 183 190 196 204 198 198 193 202 214 211 224 194 194 222 224 227 212 201
305 302 330 338 338 348 357 356 352 347 344 347 349 341 343 358 353 3 345 3 358 342 352 9 12 20 138 185 184 188 188 189 196 209 193 192 191 206 230 248 243 221 210
297 298 323 317 330 349 349 345 344 338 341 355 351 348 338 354 347 350 15 359 17 309 63 33 35 21 78 191 175 176 183 185 191 205 211 208 218 229 237 233 211 222 209